カタログに戻る

STARLINK-35435

運用中通信VLEO
NORAD 66464·PAYLOAD·🇺🇸 United States

打ち上げ Nov 15, 2025 から Cape Canaveral Space Force Station

Loading…

次のパス (今後24時間)

TLE

最新Source: CelesTrak SupGP

元期: Sep 15, 2026, 03:02 UTC

1 66464C 25262J   26258.12687500  .00036109  00000+0  13073-2 0  2587
2 66464  43.0031 305.9240 0001872 272.8142  67.5098 15.27573453    14

AllMySatでSTARLINK-35435をリアルタイム追跡

Download on the App Store